Weather History for Salmon, ID

Change the Weather History Date:

Thursday, May 30, 2013

  Actual Average Record
Temperature  
Mean Temperature 51 °F -  
Max Temperature 60 °F 67 °F 95 °F (1986)
Min Temperature 42 °F 41 °F 29 °F (1979)
Degree Days  
Heating Degree Days 14    
Growing Degree Days 1 (Base 50)    
Moisture  
Dew Point 35 °F    
Average Humidity 56    
Maximum Humidity 87    
Minimum Humidity 31    
Precipitation  
Precipitation 0.00 in - - ()
Sea Level Pressure  
Sea Level Pressure 29.94 in    
Wind  
Wind Speed 4 mph (North)    
Max Wind Speed 20 mph    
Max Gust Speed 26 mph    
Visibility 10 miles    
Events      
Averages and records for this station are not official NWS values.
T = Trace of Precipitation, MM = Missing Value Source: NWS Daily Summary

Daily Weather History Graph

Daily Weather History Graph

Search for Another Location

Airport:

Trip Planner

Search our weather history database for the weather conditions in past years. The results will help you decide how hot, cold, wet, or windy it might be!

Date:

Astronomy

May. 30, 2013 Rise Set
Actual Time 5:52 AM MDT 9:14 PM MDT
Civil Twilight 5:16 AM MDT 9:50 PM MDT
Nautical Twilight 4:28 AM MDT 10:38 PM MDT
Astronomical Twilight 3:29 AM MDT 11:38 PM MDT
Moon 1:07 AM MDT (5/30) 12:16 PM MDT (5/30)
Length of Visible Light 16h 34m
Length of Day
15h 21m
Waning Gibbous, 61% of the Moon is Illuminated
May 30
Waning Gibbous
May 31
Last Quarter
Jun 8
New
Jun 16
First Quarter
Jun 23
Full

Hourly Weather History & Observations

Time (MDT) Temp. Windchill Dew Point Humidity Pressure Visibility Wind Dir Wind Speed Gust Speed Precip Events Conditions
12:15 AM 46.4 °F - 42.8 °F 87% 29.86 in 10.0 mi Calm Calm - N/A   Overcast
12:35 AM 48.2 °F - 42.8 °F 82% 29.87 in 10.0 mi Calm Calm - N/A   Mostly Cloudy
12:55 AM 46.4 °F - 42.8 °F 87% 29.88 in 10.0 mi Calm Calm - N/A   Mostly Cloudy
1:15 AM 46.4 °F - 42.8 °F 87% 29.88 in 10.0 mi Calm Calm - N/A   Overcast
1:35 AM 46.4 °F 45.2 °F 41.0 °F 81% 29.88 in 10.0 mi NE 3.5 mph - N/A   Mostly Cloudy
1:55 AM 46.4 °F - 41.0 °F 81% 29.89 in 10.0 mi Calm Calm - N/A   Overcast
2:15 AM 46.4 °F 45.2 °F 42.8 °F 87% 29.89 in 10.0 mi WSW 3.5 mph - N/A   Overcast
2:35 AM 46.4 °F 44.3 °F 42.8 °F 87% 29.88 in 10.0 mi East 4.6 mph - N/A   Overcast
2:55 AM 46.4 °F 45.2 °F 42.8 °F 87% 29.89 in 10.0 mi ESE 3.5 mph - N/A   Overcast
3:15 AM 46.4 °F - 39.2 °F 76% 29.89 in 10.0 mi Calm Calm - N/A   Overcast
3:35 AM 46.4 °F - 39.2 °F 76% 29.89 in 10.0 mi Calm Calm - N/A   Scattered Clouds
3:55 AM 44.6 °F - 39.2 °F 81% 29.89 in 10.0 mi Calm Calm - N/A   Mostly Cloudy
4:15 AM 44.6 °F - 39.2 °F 81% 29.90 in 10.0 mi Calm Calm - N/A   Overcast
4:35 AM 44.6 °F - 39.2 °F 81% 29.91 in 10.0 mi Calm Calm - N/A   Overcast
4:55 AM 44.6 °F 43.1 °F 39.2 °F 81% 29.91 in 10.0 mi ESE 3.5 mph - N/A   Overcast
5:15 AM 44.6 °F 42.2 °F 39.2 °F 81% 29.91 in 10.0 mi NE 4.6 mph - N/A   Overcast
5:35 AM 44.6 °F - 39.2 °F 81% 29.92 in 10.0 mi Calm Calm - N/A   Overcast
5:55 AM 44.6 °F 40.7 °F 37.4 °F 76% 29.92 in 10.0 mi NNW 6.9 mph - N/A   Overcast
6:15 AM 44.6 °F - 39.2 °F 81% 29.93 in 10.0 mi Calm Calm - N/A   Scattered Clouds
6:35 AM 44.6 °F 41.4 °F 37.4 °F 76% 29.93 in 10.0 mi NE 5.8 mph - N/A   Scattered Clouds
6:55 AM 42.8 °F - 37.4 °F 81% 29.94 in 10.0 mi Calm Calm - N/A   Partly Cloudy
7:15 AM 42.8 °F - 37.4 °F 81% 29.94 in 10.0 mi Calm Calm - N/A   Clear
7:35 AM 44.6 °F - 37.4 °F 76% 29.94 in 10.0 mi Calm Calm - N/A   Partly Cloudy
7:55 AM 46.4 °F - 37.4 °F 71% 29.94 in 10.0 mi Calm Calm - N/A   Partly Cloudy
8:15 AM 48.2 °F - 33.8 °F 58% 29.94 in 10.0 mi East 3.5 mph - N/A   Scattered Clouds
8:35 AM 48.2 °F - 37.4 °F 66% 29.94 in 10.0 mi Calm Calm - N/A   Scattered Clouds
8:55 AM 50.0 °F - 33.8 °F 54% 29.94 in 10.0 mi NNE 3.5 mph - N/A   Partly Cloudy
9:15 AM 51.8 °F - 32.0 °F 47% 29.94 in 10.0 mi ENE 4.6 mph - N/A   Scattered Clouds
9:35 AM 51.8 °F - 30.2 °F 44% 29.94 in 10.0 mi Calm Calm - N/A   Overcast
9:55 AM 51.8 °F - 32.0 °F 47% 29.94 in 10.0 mi North 5.8 mph - N/A   Overcast
10:15 AM 51.8 °F - 30.2 °F 44% 29.94 in 10.0 mi West 4.6 mph - N/A   Overcast
10:35 AM 53.6 °F - 32.0 °F 44% 29.94 in 10.0 mi NW 4.6 mph - N/A   Mostly Cloudy
10:55 AM 53.6 °F - 28.4 °F 38% 29.94 in 10.0 mi Calm Calm - N/A   Mostly Cloudy
11:15 AM 53.6 °F - 30.2 °F 41% 29.93 in 10.0 mi ENE 5.8 mph - N/A   Mostly Cloudy
11:35 AM 55.4 °F - 33.8 °F 44% 29.94 in 10.0 mi NNE 9.2 mph - N/A   Scattered Clouds
11:55 AM 55.4 °F - 30.2 °F 38% 29.94 in 10.0 mi NNW 6.9 mph - N/A   Scattered Clouds
12:15 PM 55.4 °F - 30.2 °F 38% 29.94 in 10.0 mi North 4.6 mph - N/A   Overcast
12:35 PM 55.4 °F - 30.2 °F 38% 29.94 in 10.0 mi NW 4.6 mph - N/A   Overcast
12:55 PM 55.4 °F - 28.4 °F 36% 29.94 in 10.0 mi Calm Calm - N/A   Overcast
1:55 PM 57.2 °F - 30.2 °F 36% 29.94 in 10.0 mi North 10.4 mph 16.1 mph N/A   Overcast
2:15 PM 57.2 °F - 30.2 °F 36% 29.94 in 10.0 mi North 3.5 mph - N/A   Overcast
2:35 PM 57.2 °F - 28.4 °F 33% 29.93 in 10.0 mi WNW 8.1 mph - N/A   Overcast
2:55 PM 60.8 °F - 30.2 °F 31% 29.93 in 10.0 mi WNW 11.5 mph 16.1 mph N/A   Overcast
3:15 PM 59.0 °F - 28.4 °F 31% 29.93 in 10.0 mi NNW 10.4 mph - N/A   Overcast
3:35 PM 60.8 °F - 32.0 °F 34% 29.92 in 10.0 mi North 12.7 mph - N/A   Scattered Clouds
3:55 PM 60.8 °F - 30.2 °F 31% 29.93 in 10.0 mi North 11.5 mph - N/A   Mostly Cloudy
4:15 PM 60.8 °F - 30.2 °F 31% 29.92 in 10.0 mi North 6.9 mph - N/A   Scattered Clouds
4:35 PM 59.0 °F - 30.2 °F 34% 29.92 in 10.0 mi North 5.8 mph - N/A   Partly Cloudy
4:55 PM 60.8 °F - 30.2 °F 31% 29.92 in 10.0 mi North 17.3 mph 20.7 mph N/A   Partly Cloudy
5:15 PM 59.0 °F - 33.8 °F 39% 29.92 in 10.0 mi NNE 17.3 mph - N/A   Partly Cloudy
5:35 PM 60.8 °F - 33.8 °F 36% 29.92 in 10.0 mi NNE 11.5 mph - N/A   Scattered Clouds
5:55 PM 59.0 °F - 32.0 °F 36% 29.92 in 10.0 mi North 6.9 mph - N/A   Mostly Cloudy
6:15 PM 60.8 °F - 32.0 °F 34% 29.92 in 10.0 mi North 19.6 mph - N/A   Scattered Clouds
6:35 PM 60.8 °F - 33.8 °F 36% 29.93 in 10.0 mi NNE 18.4 mph - N/A   Scattered Clouds
6:55 PM 59.0 °F - 33.8 °F 39% 29.94 in 10.0 mi North 18.4 mph 26.5 mph N/A   Scattered Clouds
7:15 PM 57.2 °F - 33.8 °F 41% 29.94 in 10.0 mi North 16.1 mph 20.7 mph N/A   Clear
7:35 PM 57.2 °F - 33.8 °F 41% 29.95 in 10.0 mi North 15.0 mph 20.7 mph N/A   Scattered Clouds
7:55 PM 55.4 °F - 32.0 °F 41% 29.96 in 10.0 mi North 17.3 mph - N/A   Mostly Cloudy
8:15 PM 55.4 °F - 33.8 °F 44% 29.97 in 10.0 mi North 11.5 mph - N/A   Mostly Cloudy
8:35 PM 55.4 °F - 32.0 °F 41% 29.98 in 10.0 mi North 12.7 mph - N/A   Overcast
8:55 PM 53.6 °F - 32.0 °F 44% 29.99 in 10.0 mi North 11.5 mph - N/A   Mostly Cloudy
9:15 PM 51.8 °F - 32.0 °F 47% 30.00 in 10.0 mi North 10.4 mph 17.3 mph N/A   Partly Cloudy
9:35 PM 48.2 °F - 33.8 °F 58% 30.01 in 10.0 mi North 5.8 mph - N/A   Mostly Cloudy
9:55 PM 50.0 °F - 33.8 °F 54% 30.02 in 10.0 mi Calm Calm - N/A   Overcast
10:15 PM 51.8 °F - 32.0 °F 47% 30.03 in 10.0 mi Calm Calm - N/A   Overcast
10:35 PM 48.2 °F - 33.8 °F 58% 30.04 in 10.0 mi Calm Calm - N/A   Overcast
10:55 PM 51.8 °F - 33.8 °F 50% 30.05 in 10.0 mi NW 4.6 mph - N/A   Overcast
11:15 PM 51.8 °F - 33.8 °F 50% 30.05 in 10.0 mi WNW 5.8 mph - N/A   Overcast
11:35 PM 51.8 °F - 32.0 °F 47% 30.06 in 10.0 mi NNW 5.8 mph - N/A   Overcast
11:55 PM 50.0 °F - 33.8 °F 54% 30.06 in 10.0 mi NW 3.5 mph - N/A   Overcast